User: anonymous   Login
Location: Unspecified
(0.0000°N, 0.0000°E)
Time: 22:56:15
(UTC+00:00)
Language:

AIST 1 - Orbit

View from above orbital plane
View from above orbital plane
View from above satellite
View from above satellite

Ground track
Ground track

The orbit data is extracted from the following two-line orbital elements,

1 39492U 13078C   24109.59072798  .00004128  00000-0  41208-3 0  9992
2 39492  82.4162 313.2624 0019484  41.3556 318.9134 14.91166884557355
Epoch (UTC): 18 April 2024 14:10:38
Eccentricity: 0.0019484
inclination: 82.4162°
perigee height: 581 km
apogee height: 608 km
right ascension of ascending node: 313.2624°
argument of perigee: 41.3556°
revolutions per day: 14.91166884
mean anomaly at epoch: 318.9134°
orbit number at epoch: 55735

The dashed part of the orbit path shows where the satellite is in the earth's shadow,  

DLR